| time (UTC) | temp C | wind direction | speed KPH | gust KPH | rain 1hr cm | rain 24hr cm | rain mn cm | humidity % | barometer mb |
| 20260508223048 | 21 | 253 | 0.0 | 3.2 | 0.00 | 0.00 | 0.00 | 40 | 1014.1 |
| 20260508221556 | 21 | 0 | 0.0 | 4.8 | 0.00 | 0.00 | 0.00 | 39 | 1014.1 |
| 20260508220049 | 22 | 0 | 0.0 | 3.2 | 0.00 | 0.00 | 0.00 | 37 | 1013.9 |
| 20260508214549 | 22 | 0 | 1.6 | 4.8 | 0.00 | 0.00 | 0.00 | 37 | 1013.8 |
| 20260508213049 | 21 | 0 | 1.6 | 3.2 | 0.00 | 0.00 | 0.00 | 39 | 1013.8 |
| 20260508211553 | 21 | 0 | 0.0 | 3.2 | 0.00 | 0.00 | 0.00 | 39 | 1014.1 |
| 20260508210049 | 21 | 203 | 1.6 | 6.4 | 0.00 | 0.00 | 0.00 | 37 | 1014.3 |
| 20260508204547 | 21 | 200 | 0.0 | 4.8 | 0.00 | 0.00 | 0.00 | 34 | 1014.2 |
| 20260508203048 | 22 | 215 | 0.0 | 9.7 | 0.00 | 0.00 | 0.00 | 35 | 1014.3 |
| 20260508201544 | 21 | 265 | 3.2 | 8.0 | 0.00 | 0.00 | 0.00 | 32 | 1014.5 |
| 20260508200105 | 21 | 60 | 3.2 | 11.3 | 0.00 | 0.00 | 0.00 | 35 | 1014.6 |
| 20260508194548 | 21 | 230 | 4.8 | 12.9 | 0.00 | 0.00 | 0.00 | 32 | 1015.1 |
| 20260508193058 | 22 | 232 | 1.6 | 6.4 | 0.00 | 0.00 | 0.00 | 33 | 1015.3 |
| 20260508191547 | 22 | 267 | 3.2 | 12.9 | 0.00 | 0.00 | 0.00 | 33 | 1015.4 |
| 20260508190043 | 21 | 0 | 4.8 | 9.7 | 0.00 | 0.00 | 0.00 | 32 | 1015.5 |
| 20260508184549 | 21 | 204 | 3.2 | 8.0 | 0.00 | 0.00 | 0.00 | 33 | 1016.0 |
| 20260508183106 | 21 | 0 | 0.0 | 11.3 | 0.00 | 0.00 | 0.00 | 33 | 1016.0 |
| 20260508181608 | 21 | 36 | 3.2 | 8.0 | 0.00 | 0.00 | 0.00 | 32 | 1016.1 |
| 20260508180049 | 21 | 94 | 3.2 | 9.7 | 0.00 | 0.00 | 0.00 | 36 | 1016.3 |
| 20260508174547 | 21 | 254 | 1.6 | 6.4 | 0.00 | 0.00 | 0.00 | 31 | 1016.6 |
| 20260508173047 | 21 | 322 | 0.0 | 3.2 | 0.00 | 0.00 | 0.00 | 38 | 1016.6 |
| 20260508171549 | 20 | 0 | 1.6 | 4.8 | 0.00 | 0.00 | 0.00 | 33 | 1017.0 |
| 20260508170043 | 20 | 209 | 3.2 | 9.7 | 0.00 | 0.00 | 0.00 | 35 | 1017.3 |
| 20260508164541 | 20 | 0 | 0.0 | 3.2 | 0.00 | 0.00 | 0.00 | 37 | 1017.5 |
| 20260508163048 | 20 | 351 | 1.6 | 8.0 | 0.00 | 0.00 | 0.00 | 36 | 1017.6 |
| 20260508161544 | 20 | 0 | 0.0 | 8.0 | 0.00 | 0.00 | 0.00 | 40 | 1017.8 |
| 20260508160054 | 20 | 234 | 0.0 | 8.0 | 0.00 | 0.00 | 0.00 | 34 | 1018.1 |
| 20260508154542 | 20 | 87 | 0.0 | 6.4 | 0.00 | 0.00 | 0.00 | 39 | 1018.1 |
| 20260508153051 | 18 | 225 | 0.0 | 3.2 | 0.00 | 0.00 | 0.00 | 40 | 1018.1 |
| 20260508151550 | 18 | 226 | 1.6 | 4.8 | 0.00 | 0.00 | 0.00 | 46 | 1018.2 |
| 20260508150049 | 18 | 352 | 1.6 | 6.4 | 0.00 | 0.00 | 0.00 | 51 | 1018.4 |
| 20260508144553 | 17 | 22 | 0.0 | 4.8 | 0.00 | 0.00 | 0.00 | 49 | 1018.6 |
| 20260508143052 | 17 | 78 | 0.0 | 4.8 | 0.00 | 0.00 | 0.00 | 50 | 1018.6 |
| 20260508141559 | 16 | 0 | 3.2 | 8.0 | 0.00 | 0.00 | 0.00 | 52 | 1018.3 |
| 20260508140059 | 16 | 335 | 1.6 | 6.4 | 0.00 | 0.00 | 0.00 | 52 | 1018.2 |
| 20260508134548 | 16 | 0 | 0.0 | 1.6 | 0.00 | 0.00 | 0.00 | 59 | 1018.5 |
| 20260508133045 | 15 | 0 | 0.0 | 6.4 | 0.00 | 0.00 | 0.00 | 63 | 1018.3 |
| 20260508131545 | 15 | 19 | 0.0 | 4.8 | 0.00 | 0.00 | 0.00 | 66 | 1018.1 |
| 20260508130047 | 13 | 0 | 1.6 | 3.2 | 0.00 | 0.00 | 0.00 | 75 | 1018.1 |
| 20260508124548 | 11 | 0 | 0.0 | 0.0 | 0.00 | 0.00 | 0.00 | 93 | 1017.8 |
| 20260508123047 | 9 | 0 | 0.0 | 3.2 | 0.00 | 0.00 | 0.00 | 96 | 1017.8 |
| 20260508121548 | 9 | 0 | 0.0 | 0.0 | 0.00 | 0.00 | 0.00 | 96 | 1017.7 |
| 20260508120053 | 8 | 0 | 0.0 | 0.0 | 0.00 | 0.00 | 0.00 | 96 | 1017.6 |
| 20260508114541 | 8 | 0 | 0.0 | 0.0 | 0.00 | 0.00 | 0.00 | 96 | 1017.3 |
| 20260508113121 | 8 | 0 | 0.0 | 0.0 | 0.00 | 0.00 | 0.00 | 96 | 1017.0 |
| 20260508111550 | 7 | 0 | 0.0 | 0.0 | 0.00 | 0.00 | 0.00 | 95 | 1016.8 |
| 20260508110049 | 7 | 0 | 0.0 | 0.0 | 0.00 | 0.00 | 0.00 | 95 | 1016.7 |
| 20260508104553 | 7 | 0 | 0.0 | 0.0 | 0.00 | 0.00 | 0.00 | 95 | 1016.3 |
| 20260508103057 | 7 | 0 | 0.0 | 0.0 | 0.00 | 0.00 | 0.00 | 95 | 1016.0 |
| 20260508101551 | 7 | 0 | 0.0 | 0.0 | 0.00 | 0.00 | 0.00 | 95 | 1015.8 |
| 20260508100047 | 8 | 0 | 0.0 | 0.0 | 0.00 | 0.00 | 0.00 | 95 | 1015.7 |
| 20260508094549 | 8 | 0 | 0.0 | 0.0 | 0.00 | 0.00 | 0.00 | 95 | 1015.5 |
| 20260508093046 | 8 | 0 | 0.0 | 0.0 | 0.00 | 0.00 | 0.00 | 95 | 1015.5 |
| 20260508091546 | 8 | 0 | 0.0 | 0.0 | 0.00 | 0.00 | 0.00 | 95 | 1015.3 |
| 20260508090051 | 9 | 0 | 0.0 | 0.0 | 0.00 | 0.00 | 0.00 | 94 | 1015.3 |
| 20260508084547 | 9 | 0 | 0.0 | 0.0 | 0.00 | 0.00 | 0.00 | 94 | 1015.1 |
| 20260508083048 | 10 | 0 | 0.0 | 0.0 | 0.00 | 0.00 | 0.00 | 94 | 1015.2 |
| 20260508081548 | 10 | 0 | 0.0 | 1.6 | 0.00 | 0.00 | 0.00 | 94 | 1015.1 |
| 20260508080049 | 10 | 0 | 0.0 | 0.0 | 0.00 | 0.00 | 0.00 | 94 | 1014.9 |
| 20260508074544 | 10 | 0 | 0.0 | 1.6 | 0.00 | 0.00 | 0.00 | 95 | 1014.8 |
| 20260508073048 | 10 | 0 | 0.0 | 0.0 | 0.00 | 0.00 | 0.00 | 95 | 1014.7 |
| 20260508071542 | 10 | 0 | 0.0 | 0.0 | 0.00 | 0.00 | 0.00 | 95 | 1014.7 |
| 20260508070041 | 10 | 0 | 0.0 | 0.0 | 0.00 | 0.00 | 0.00 | 94 | 1014.6 |
| 20260508064603 | 10 | 0 | 0.0 | 0.0 | 0.00 | 0.00 | 0.00 | 94 | 1014.5 |
| 20260508063048 | 10 | 0 | 0.0 | 0.0 | 0.00 | 0.00 | 0.00 | 94 | 1014.5 |
| 20260508061550 | 11 | 0 | 0.0 | 0.0 | 0.00 | 0.00 | 0.00 | 94 | 1014.5 |
| 20260508060049 | 11 | 0 | 0.0 | 0.0 | 0.00 | 0.00 | 0.00 | 94 | 1014.6 |
| 20260508054612 | 11 | 0 | 0.0 | 0.0 | 0.00 | 0.00 | 0.00 | 94 | 1014.5 |
| 20260508053047 | 11 | 0 | 0.0 | 0.0 | 0.00 | 0.00 | 0.00 | 94 | 1014.4 |
| 20260508051549 | 11 | 0 | 0.0 | 0.0 | 0.00 | 0.00 | 0.00 | 94 | 1014.4 |
| 20260508050050 | 11 | 0 | 0.0 | 0.0 | 0.00 | 0.00 | 0.00 | 94 | 1014.3 |
| 20260508044547 | 11 | 0 | 0.0 | 0.0 | 0.00 | 0.00 | 0.00 | 94 | 1014.2 |
| 20260508043054 | 11 | 0 | 0.0 | 0.0 | 0.00 | 0.00 | 0.00 | 94 | 1014.0 |
| 20260508041547 | 11 | 0 | 0.0 | 0.0 | 0.00 | 0.00 | 0.00 | 93 | 1014.1 |
| 20260508040057 | 12 | 0 | 0.0 | 0.0 | 0.00 | 0.00 | 0.00 | 93 | 1013.8 |
| 20260508034549 | 12 | 0 | 0.0 | 0.0 | 0.00 | 0.00 | 0.00 | 93 | 1013.8 |
| 20260508033045 | 12 | 0 | 0.0 | 0.0 | 0.00 | 0.00 | 0.00 | 93 | 1014.0 |
| 20260508031556 | 12 | 0 | 0.0 | 1.6 | 0.00 | 0.00 | 0.00 | 93 | 1013.9 |
| 20260508030052 | 12 | 0 | 0.0 | 0.0 | 0.00 | 0.00 | 0.00 | 93 | 1013.7 |
| 20260508024544 | 12 | 0 | 0.0 | 0.0 | 0.00 | 0.05 | 0.00 | 92 | 1013.5 |
| 20260508023050 | 12 | 0 | 0.0 | 0.0 | 0.00 | 0.05 | 0.00 | 93 | 1013.4 |
| 20260508021541 | 12 | 0 | 0.0 | 0.0 | 0.00 | 0.05 | 0.00 | 92 | 1013.1 |
| 20260508020048 | 13 | 0 | 0.0 | 0.0 | 0.00 | 0.05 | 0.00 | 92 | 1012.9 |
| 20260508014548 | 13 | 0 | 0.0 | 0.0 | 0.00 | 0.33 | 0.00 | 92 | 1012.7 |
| 20260508013042 | 13 | 0 | 0.0 | 0.0 | 0.00 | 0.33 | 0.00 | 92 | 1012.7 |
| 20260508011554 | 13 | 0 | 0.0 | 1.6 | 0.00 | 0.33 | 0.00 | 91 | 1012.2 |
| 20260508010046 | 13 | 0 | 0.0 | 1.6 | 0.00 | 0.33 | 0.00 | 91 | 1011.9 |
| 20260508004546 | 13 | 0 | 0.0 | 3.2 | 0.00 | 0.41 | 0.00 | 90 | 1011.5 |
| 20260508003044 | 13 | 0 | 0.0 | 6.4 | 0.00 | 0.41 | 0.00 | 89 | 1011.4 |
| 20260508001547 | 14 | 0 | 0.0 | 6.4 | 0.00 | 0.41 | 0.00 | 89 | 1010.9 |
| 20260508000053 | 14 | 0 | 0.0 | 1.6 | 0.00 | 0.41 | 0.00 | 88 | 1010.4 |
| 20260507234548 | 15 | 57 | 0.0 | 8.0 | 0.00 | 0.41 | 0.00 | 88 | 1010.4 |
| 20260507233044 | 15 | 0 | 1.6 | 9.7 | 0.00 | 0.41 | 0.00 | 88 | 1010.2 |
| 20260507231546 | 15 | 0 | 0.0 | 11.3 | 0.00 | 0.41 | 0.00 | 89 | 1009.9 |
| 20260507230051 | 15 | 0 | 0.0 | 4.8 | 0.00 | 0.41 | 0.00 | 89 | 1009.9 |
| 20260507224551 | 15 | 0 | 1.6 | 8.0 | 0.00 | 0.41 | 0.00 | 89 | 1009.7 |